Showing default

WILDFIRE 8, 57768

Orbit data source: Space-Track

WILDFIRE 8, 57768 is a payload satellite owned by SDA (US) in LEO that was launched on Sat, 02 Sep 2023 UTC via an FALCON 9 launch vehicle from the Air Force Western Test Range (AFWTR). Payload-class satellites include a variety of spacecraft equipped with specific instruments for various scientific and technological missions. These include communications satellites like Starlink; space stations such as the ISS; scientific satellites like the Hubble; Earth observation satellites from companies like Planet Labs, Umbra, and HawkEye 360; GPS; miniature CubeSats for education and research; and military/defense satellites.

Loading next visibility...
Identifier
57768, 2023-133M
Orbit
LEO
Country
Flag of USUS
Related business
Manufacturer
TYVAK/LMSSD
Mission
Operational Defense Communications
Bus & Motor
MAVERICKS, Unknown motor
Mass
~300 kg wet, ~300 kg dry
Launch date (UTC)
2023-09-02 (2 years ago)
Launch vehicle
FALCON 9
Launch site
Air Force Western Test Range (AFWTR)
Object type
Payload
Rocket body
Debris
Shape & HBR
Box + 2 Pan, 1.3 m
Radar Cross Section
0.713 m², Large (>1 m²)

Expand to show TLE details & history
Last TLE update: 9 hours ago

TLE from 9 hours ago
0 WILDFIRE 8
1 57768U 23133M   25346.99596796  .00000131  00000-0  10534-3 0  9996
2 57768  80.9937 185.8012 0006091 152.1300 208.0184 13.85396199115255
Epoch: 2025-12-12T23:54Z
TLE epoch observation values (Epoch: 2025-12-12T23:54:11.631Z)
Latitude
-0.00001°
Longitude
105.32315°
Altitude
951.606 km
Speed
7.374 km/s
True Right ascension
12h 23m 12s
True Declination
0° 00' 00"
Sunlit
Object was in daylight at epoch
Visualization orbit readout
Latitude
Unknown
Longitude
Unknown
Altitude
Unknown
Speed
Unknown
Apparent Right ascension
Unknown
Apparent Declination
Unknown
Sunlit
N/A
Visualization observer readout
Local Sidereal Time
07:30:59
Azimuth
Unknown
Elevation
Unknown
Doppler factor
Unknown
Orbital elements
Apogee altitude
946.487 km
Perigee altitude
937.57 km
Semi-major axis
7,320.166 km
Eccentricity
0.00061
Inclination
80.9937°
RAAN
185.8012°
Arg. of periapsis
152.13°
True anomaly
207.98563°
Mean anomaly
208.0184°
Eccentric anomaly
208.00201°
Mean motion
3.46547 °/min
Orbital period
103.88 mins
BSTAR
0.00010534
Loading maneuver chart data...
Computing Atmospheric mass density...
Loading historical data...
Loading historical data...
Loading historical data...
Loading historical data...
Loading historical data...
Loading historical data...
Loading historical data...

Documentation

Showing up to 5 results
|